This demonstration page uses our WeatherBlox Daily Observations layout. Learn more.

Left ArrowRight Arrow

44.31136, -96.79839

Hourly Observations for May 6, 2022

Temp ( °F °C ) Dew Point ( °F °C ) Humidity (%) Winds ( mph kmh ) Pressure ( in mb ) Visibility ( mi km ) Precip ( " mm )
12:03 am 00:03 Cloudy 52 11 46 8 82 82 SE 8 13 29.95 1014 10 16 0.00 0.00
12:39 am 00:39 Cloudy 52 11 48 9 88 88 ESE 5 7 29.94 1014 10 16 0.00 0.00
12:56 am 00:56 Cloudy 52 11.1 47 8.3 83 83 ESE 5 7 29.99 1016 10 16 0.00 0.00
1:56 am 01:56 Cloudy 52 11.1 48 8.9 86 86 E 5 7 29.96 1015 9 14 0.00 0.00
2:56 am 02:56 Cloudy 52 11.1 47 8.3 83 83 E 6 9 29.95 1014 10 16 0.00 0.00
3:56 am 03:56 Cloudy 51 10.6 47 8.3 86 86 ESE 8 13 29.94 1014 9 14 0.00 0.00
4:51 am 04:51 Cloudy 52 11 48 9 88 88 SSE 9 15 29.88 1012 7 11 0.00 0.00
4:56 am 04:56 Cloudy 51 10.6 48 8.9 89 89 SSE 9 15 29.92 1013 7 11 0.00 0.00
5:48 am 05:48 Cloudy with Mist and Fog 50 10 48 9 94 94 S 7 11 29.89 1012 6 10 0.00 0.00
5:56 am 05:56 Cloudy with Mist and Fog 51 10.6 48 8.9 89 89 S 8 13 29.93 1013 6 10 0.00 0.00
6:56 am 06:56 Mostly Cloudy with Mist and Fog 50 10 48 8.9 93 93 S 6 9 29.93 1013 4 6 0.00 0.00
7:56 am 07:56 Cloudy with Mist and Fog 53 11.7 49 9.4 86 86 SE 7 11 29.92 1013 6 10 0.00 0.00
8:56 am 08:56 Cloudy 53 11.7 49 9.4 86 86 SE 9 15 29.93 1014 9 14 0.00 0.00
9:40 am 09:40 Cloudy 55 13 48 9 77 77 SSE 10 17 29.88 1012 10 16 0.00 0.00
9:56 am 09:56 Cloudy 56 13.3 48 8.9 75 75 SSE 12 19 29.93 1014 10 16 0.00 0.00
10:24 am 10:24 Mostly Cloudy 57 14 48 9 72 72 SSE 13 20 29.88 1012 10 16 0.00 0.00
10:56 am 10:56 Mostly Cloudy 59 15 50 10 72 72 SSE 12 19 29.92 1013 10 16 0.00 0.00
11:03 am 11:03 Mostly Cloudy 59 15 48 9 68 68 S 13 20 29.86 1011 10 16 0.00 0.00
11:56 am 11:56 Cloudy 60 15.6 48 8.9 65 65 SSE 15 24 29.91 1013 10 16 0.00 0.00
12:56 pm 12:56 Cloudy 61 16.1 49 9.4 65 65 SSE 15 24 29.90 1012 10 16 0.00 0.00
1:56 pm 13:56 Cloudy 61 16.1 48 8.9 63 63 S 14 22 29.88 1012 10 16 0.00 0.00
2:56 pm 14:56 Cloudy 63 17.2 48 8.9 58 58 S 14 22 29.88 1012 10 16 0.00 0.00
3:56 pm 15:56 Partly Cloudy 63 17.2 48 8.9 58 58 SSE 13 20 29.86 1011 10 16 0.00 0.00
4:56 pm 16:56 Partly Cloudy 66 18.9 49 9.4 54 54 S 16 26 29.85 1011 10 16 0.00 0.00
5:56 pm 17:56 Sunny 65 18.3 49 9.4 56 56 S 13 20 29.85 1011 10 16 0.00 0.00
6:56 pm 18:56 Sunny 65 18.3 49 9.4 56 56 SSE 13 20 29.85 1011 10 16 0.00 0.00
7:56 pm 19:56 Mostly Cloudy 63 17.2 48 8.9 58 58 SSE 14 22 29.86 1011 10 16 0.00 0.00
8:56 pm 20:56 Clear 59 15 48 8.9 67 67 SE 9 15 29.88 1012 10 16 0.00 0.00
9:56 pm 21:56 Mostly Clear 57 13.9 48 8.9 72 72 SE 9 15 29.89 1012 10 16 0.00 0.00
10:56 pm 22:56 Clear 55 12.8 48 8.9 77 77 SSE 9 15 29.90 1012 10 16 0.00 0.00
11:56 pm 23:56 Clear 52 11.1 47 8.3 83 83 SE 10 17 29.89 1012 10 16 0.00 0.00

Powered by AerisWeather